Weather in Borisovskiy

Russia / Tver Oblast     57°39′40″N   34°09′28″E
temp.,
°C
wind,
m/s
gust,
m/s
humid.,
%
clouds,
%
prec.,
mm/h
press.,
hPa
HPBL,
m
8 march, mon
mon800:00−8w61191100 0.4 9921036
03:00−8nw51092100 1.2 994697
06:00−10nnw51092100 0.3 997438
09:00−11nnw4890100 0.3 1001399
12:00−7nnw4779100 0.1 1005921
15:00−7nnw5778100 0.3 1007947
18:00−9nnw4785100 0.1 1010884
21:00−12nnw3993100 0.1 1013401
9 march, tue
tue900:00−14n379597 0.1 1014336
03:00−16nnw249891 0.1 1016151
06:00−18nnw259779 0.0 1017237
09:00−18n259082 0.0 1019284
12:00−14n247583 0.0 1021530
15:00−12nnw357150 0.0 1021739
18:00−14n258235 0.0 1022247
21:00−18ne249525 0.0 1025117
10 march, wed
wed1000:00−19ne25970 0.0 1027188
03:00−22ene24950 0.0 1028172
06:00−23ne12960 0.0 103086
09:00−20ene12810 0.0 1031206
12:00−14ene12610 0.0 1031393
15:00−10e11570 0.0 1031596
18:00−13nw01710 0.0 103020
21:00−16wnw11796 0.0 103220
11 march, thu
thu1100:00−16w118446 0.0 103220
03:00−17sw118724 0.0 103320
06:00−17ssw12870 0.0 103220
09:00−15s24720 0.0 1032188
12:00−9s36590 0.0 1030528
15:00−7s47550 0.0 1029838
18:00−9s397226 0.0 1027438
21:00−12s398613 0.0 1027339
12 march, fri
fri1200:00−13s39890 0.0 1026327
03:00−13s49920 0.0 1025329
06:00−14sse410922 0.0 1023337
09:00−11s512811 0.0 1021450
12:00−6sse612680 0.0 1019654
15:00−4sse713680 0.0 1017804
18:00−6sse6147816 0.0 1015891
21:00−6s6148557 0.0 10141038